GFSNW_sfc_rhum_000.txt.gz
RH
92 89 90 91 91 92 82 67 58 62 72 61 85 60 48 55 52 49 51 54 56 60 65 67 65 65 59 53 61 64 69 76 83 62 57 64 67 69 68 86 77 93 95 81
93 90 93 96 92 92 79 74 71 66 60 78 88 60 54 53 50 54 52 56 58 59 67 69 64 64 67 64 61 69 66 78 81 51 54 57 70 72 71 80 87 85 96 77
92 93 98 98 91 94 79 68 83 80 82 77 59 59 60 58 52 53 60 58 55 60 66 68 74 73 65 65 67 76 65 75 67 76 59 66 80 79 75 80 92 84 82 67
93 98 98 97 91 95 75 78 80 78 84 81 70 66 58 61 58 52 56 60 60 63 75 74 83 74 68 63 71 75 71 82 81 75 70 75 75 80 81 89 83 89 70 80
98 98 98 98 92 91 78 79 79 85 88 71 59 74 61 64 60 55 63 63 67 67 70 68 78 78 79 74 74 81 82 85 91 90 88 90 94 84 86 86 87 89 84 87
99 98 98 98 93 86 83 95 84 74 90 72 78 79 58 55 58 60 56 61 63 69 67 66 72 67 68 75 77 76 82 94 98 89 92 92 76 67 83 80 74 73 74 58
95 98 98 94 94 94 88 94 76 81 89 90 78 66 61 60 62 62 60 60 66 57 65 64 64 63 61 75 80 79 98 96 97 98 91 97 60 60 54 66 62 58 67 68
94 97 98 94 94 96 96 97 76 84 96 95 81 66 65 65 63 71 64 76 73 67 70 85 81 81 68 78 95 95 90 98 98 98 95 82 67 59 69 72 66 61 73 78
95 96 96 94 94 95 96 98 89 79 92 85 64 68 70 83 82 81 83 82 80 76 95 89 89 84 82 79 75 91 93 93 95 99 99 97 69 59 61 77 88 80 76 68
96 96 96 95 94 95 95 98 89 80 90 78 74 79 77 75 85 83 88 83 84 84 99 98 97 93 86 92 87 82 99 98 98 94 99 90 70 63 64 89 81 70 71 74
95 96 96 96 94 94 93 98 96 87 94 86 80 71 79 84 84 89 81 83 90 98 99 99 99 96 91 93 82 81 74 84 95 98 98 95 66 71 78 72 79 72 74 83
97 95 96 97 94 94 90 96 96 95 89 74 95 89 81 71 65 81 89 79 84 95 98 99 99 100 99 92 95 81 87 76 82 84 86 68 58 67 62 66 80 86 93 90
98 97 97 98 94 95 92 97 98 95 100 90 86 82 79 80 74 72 88 96 80 89 88 98 100 96 98 99 98 94 86 82 92 82 76 79 71 64 74 89 94 92 92 93
98 98 98 98 95 93 90 96 97 96 99 100 88 81 79 77 82 82 79 78 92 93 98 100 99 100 90 100 92 97 91 85 91 92 77 80 79 94 94 91 91 90 84 82
99 98 99 99 95 94 95 97 97 94 91 99 99 89 83 81 83 85 87 87 92 99 100 100 100 100 99 100 100 99 91 90 95 86 77 94 87 90 90 86 84 81 77 79
99 99 99 99 96 94 96 99 96 97 93 100 100 94 89 86 84 86 90 94 95 99 99 100 99 88 94 100 95 78 68 69 74 86 74 79 89 80 74 74 70 66 70 73
99 99 99 99 96 97 97 98 93 96 95 100 100 99 93 90 91 98 95 95 97 98 99 100 100 99 95 100 93 77 76 82 74 71 81 94 84 78 64 60 60 65 65 68
99 99 99 99 98 97 99 98 98 96 98 100 100 99 95 89 99 100 99 100 100 99 100 100 100 99 100 100 90 80 75 73 82 89 89 89 74 66 62 59 62 66 70 75
99 99 98 97 98 100 99 98 96 98 97 100 100 100 100 95 99 99 99 99 100 98 100 100 99 100 99 96 86 81 80 85 86 89 83 72 63 65 63 63 66 68 74 84
98 96 98 100 100 98 96 95 99 100 100 99 100 99 100 95 100 100 100 100 100 99 99 96 100 99 82 75 89 94 92 84 80 83 70 71 77 76 75 70 66 72 82 87
96 100 100 100 98 96 98 100 100 100 100 100 98 99 100 96 99 100 100 99 100 100 94 95 98 97 84 81 80 76 71 67 67 67 66 65 68 72 78 80 73 80 84 86
91 96 97 97 97 100 100 100 100 100 98 100 99 99 98 100 98 99 100 99 99 98 92 99 98 89 81 85 84 78 75 72 66 66 67 71 76 81 85 85 83 85 85 93
87 95 99 97 99 99 99 98 99 99 99 100 100 99 100 99 99 99 99 98 97 98 98 96 95 78 72 70 75 73 77 75 75 67 68 74 77 80 89 86 85 88 88 86
91 96 99 97 99 99 96 94 96 96 100 100 100 99 98 99 98 99 93 95 97 98 100 93 90 73 65 72 77 77 72 80 82 76 77 83 86 87 85 89 89 91 90 85
94 86 96 99 97 98 100 100 100 100 99 100 99 99 94 99 98 97 97 97 93 88 90 94 89 74 74 73 69 72 83 85 86 81 87 87 88 90 88 85 89 91 91 91
92 94 98 99 98 99 99 100 100 98 99 98 96 97 97 98 95 98 98 97 97 88 96 94 90 76 76 74 78 80 83 87 85 85 89 88 91 90 88 88 89 90 92 92
88 99 96 99 97 95 98 98 99 95 94 94 95 91 82 92 99 100 95 94 90 92 93 93 86 76 74 76 81 85 87 85 88 88 89 89 89 92 95 95 88 90 91 93

GFSNW_sfc_rhum_003.txt.gz
RH
93 90 93 98 93 93 72 68 68 69 72 58 75 60 45 55 50 48 50 53 54 55 60 61 57 59 53 54 51 55 57 66 63 48 47 51 50 52 53 65 62 74 82 59
92 93 98 98 91 93 73 68 67 67 63 79 89 60 54 51 50 54 50 55 57 56 62 65 61 60 62 63 55 57 55 68 60 39 45 44 54 55 60 67 76 72 90 58
94 98 99 97 91 94 74 64 85 77 76 71 62 59 60 57 52 54 57 54 54 58 63 67 66 63 60 64 61 79 64 65 59 53 42 51 65 64 61 66 86 67 68 55
98 98 99 98 92 94 71 76 79 75 82 78 66 62 56 57 55 51 53 55 54 58 70 69 73 62 59 58 68 67 65 78 69 64 61 65 64 65 66 70 68 81 63 60
98 98 99 98 92 92 76 75 76 81 80 66 60 71 64 59 56 52 58 60 61 58 62 57 64 64 65 63 58 67 71 77 85 85 75 73 84 68 70 70 71 72 68 70
98 98 99 95 92 87 77 90 78 72 87 70 73 71 58 55 58 59 53 58 60 63 58 58 57 62 68 60 63 73 78 88 93 81 83 82 78 56 68 62 60 57 64 46
97 98 99 93 93 92 82 88 71 83 89 85 71 62 57 59 58 61 59 56 67 55 60 59 61 59 59 62 76 71 98 93 97 97 90 85 50 49 48 56 53 50 52 53
94 95 96 94 93 96 90 93 70 79 100 88 73 62 64 61 64 67 60 72 69 64 67 84 84 78 70 78 90 85 80 96 99 98 86 75 57 50 54 61 50 51 59 61
95 95 96 95 93 95 94 96 85 75 94 86 61 65 64 76 77 77 83 77 75 72 92 92 87 80 74 66 68 83 84 89 96 99 99 94 66 46 50 56 71 60 60 64
95 95 96 96 94 94 92 97 88 73 90 72 65 73 73 71 76 78 79 81 83 78 99 100 97 90 76 79 84 83 98 98 95 92 95 82 62 56 54 86 89 73 62 65
94 95 96 96 93 93 91 97 94 81 88 78 74 67 72 76 76 87 80 83 90 99 100 100 98 98 86 82 70 72 71 85 92 95 97 94 54 57 84 77 81 73 73 83
96 95 96 97 93 95 89 91 94 92 86 74 92 86 72 65 61 79 85 74 81 91 97 98 100 100 99 92 92 69 84 74 81 82 80 60 54 62 69 76 82 90 94 89
98 96 96 98 93 92 91 95 96 92 99 89 83 79 76 77 70 69 84 94 77 84 81 96 99 100 92 100 97 98 78 69 90 83 73 61 65 74 84 90 88 85 82 85
99 98 98 99 94 93 90 93 94 94 99 100 85 77 76 73 79 75 74 81 88 89 95 100 100 100 85 100 87 91 77 81 88 88 71 72 75 82 80 88 89 85 78 71
98 99 99 99 94 92 94 97 97 92 89 98 98 85 80 81 78 83 82 83 95 99 100 100 100 98 98 100 100 100 85 85 94 88 72 87 87 91 89 85 80 71 61 61
99 99 99 98 95 93 95 96 94 96 92 100 100 90 90 82 82 85 90 90 94 98 98 100 99 86 94 100 100 81 70 68 70 80 79 87 86 75 67 62 57 56 57 50
99 99 99 99 97 96 96 96 90 95 93 100 100 100 89 88 89 96 92 94 96 97 99 100 99 99 95 100 99 72 70 70 70 76 83 82 71 70 57 55 50 53 50 48
99 99 99 99 96 95 98 97 96 95 98 100 100 100 98 86 99 100 96 100 98 99 99 100 100 98 100 100 84 77 67 69 80 83 79 75 62 55 52 52 53 56 54 49
99 99 98 98 98 100 99 97 95 97 95 100 100 100 100 94 99 99 99 98 100 97 100 100 99 100 99 92 81 80 80 76 80 73 58 59 64 61 59 61 62 60 54 50
98 97 98 100 100 98 98 96 100 100 100 99 100 99 100 92 100 100 100 100 100 100 98 90 100 99 80 74 82 81 78 72 70 70 69 67 65 64 66 66 65 65 62 64
98 100 100 100 98 97 98 100 99 99 100 100 99 100 100 97 99 100 100 100 100 99 90 97 96 90 79 74 72 70 68 64 63 59 60 64 67 69 72 75 75 80 79 78
98 98 98 99 97 100 100 100 100 100 99 100 100 100 98 100 98 99 100 98 96 97 91 98 94 79 77 75 71 70 68 61 55 54 56 61 63 68 76 77 76 79 81 85
92 97 100 94 100 100 98 98 100 100 100 98 100 100 100 99 99 99 95 96 96 93 97 93 85 70 61 61 68 69 70 63 66 60 62 68 68 72 80 83 83 87 86 84
93 98 99 95 99 98 97 94 95 95 100 100 100 99 96 99 98 96 90 94 94 98 100 92 79 63 58 66 70 59 56 76 77 71 74 82 86 86 86 90 90 92 91 87
87 87 99 98 95 99 100 100 100 100 99 100 98 97 91 98 96 93 94 97 96 89 87 84 79 71 68 66 58 60 77 84 82 74 84 87 88 90 88 87 91 90 93 93
91 93 95 98 97 100 100 100 100 98 100 98 95 94 96 96 93 97 97 90 88 83 90 85 75 73 73 72 73 72 75 79 77 78 82 84 91 91 86 90 92 92 94 94
89 99 98 98 96 96 98 100 100 97 99 95 90 86 85 90 96 96 87 91 85 86 82 76 78 74 68 69 74 82 82 79 82 81 84 85 88 93 95 94 82 88 90 93

GFSNW_sfc_rhum_006.txt.gz
RH
92 96 98 93 93 91 64 53 42 54 59 40 40 38 33 49 35 34 36 37 37 39 43 44 44 45 40 41 39 39 43 46 40 33 39 38 37 40 38 50 45 53 62 44
95 98 99 95 93 90 44 40 41 48 53 66 75 42 40 37 35 38 36 41 39 39 45 52 45 45 47 45 40 42 41 49 38 36 42 38 42 40 42 48 57 62 82 44
98 98 99 99 92 93 48 40 72 47 40 43 38 41 42 42 38 41 38 41 37 42 45 44 51 49 47 48 45 76 56 46 43 32 30 34 38 34 36 43 71 53 51 39
98 98 98 94 92 92 50 45 57 54 67 54 41 39 39 40 41 38 36 38 37 41 56 48 51 46 45 45 60 52 48 50 48 40 36 35 40 40 36 40 46 61 49 37
98 98 98 92 93 92 48 49 51 48 50 48 41 57 40 38 40 36 39 39 39 33 40 33 43 36 39 36 47 47 50 58 65 60 46 40 50 40 37 41 42 43 43 44
98 99 99 91 94 81 47 59 53 43 70 51 53 50 40 38 40 46 36 37 40 54 37 35 44 45 47 45 46 55 62 71 76 85 60 63 85 52 38 38 40 40 51 38
98 98 94 93 94 84 53 54 46 71 77 60 45 42 40 41 41 46 44 38 62 45 46 46 45 45 50 52 60 56 94 82 92 99 92 92 46 33 34 40 37 32 33 40
95 95 95 94 93 95 59 60 48 64 100 56 50 44 46 46 46 48 44 53 53 46 49 68 100 67 95 80 62 62 61 84 100 100 74 54 43 38 42 45 44 39 46 49
95 96 96 94 93 95 66 69 62 54 88 76 40 46 44 55 58 60 68 60 56 53 80 88 99 73 56 47 55 67 68 79 92 92 99 92 48 38 39 42 56 51 62 76
94 95 96 95 93 93 67 74 77 49 86 50 48 50 51 47 52 58 64 64 75 60 100 100 99 75 58 57 87 89 95 97 98 90 99 69 41 44 44 83 80 68 79 82
93 94 95 96 94 94 72 81 80 61 74 55 54 50 54 51 47 72 68 67 77 93 100 100 96 100 73 66 51 62 65 92 97 96 99 96 43 44 83 65 72 82 78 72
94 94 95 97 93 93 84 65 77 77 64 62 74 68 56 52 38 50 70 58 61 67 90 99 100 100 100 98 85 50 67 58 59 67 67 42 42 52 53 67 79 71 76 64
97 95 95 97 93 92 84 68 79 68 97 73 66 63 61 58 51 48 66 76 57 64 65 87 100 100 83 100 90 94 51 48 71 73 54 46 51 49 60 71 78 76 72 56
98 97 97 99 92 91 86 78 75 74 86 100 76 59 61 57 60 56 54 60 69 68 74 100 100 100 64 99 72 71 54 52 61 72 59 55 51 66 77 76 82 77 52 47
98 99 99 99 93 92 84 84 82 77 74 97 86 68 64 61 62 60 59 61 70 89 100 100 100 90 88 92 95 88 50 54 85 94 70 69 76 75 76 82 69 48 44 38
98 99 99 99 94 93 77 81 79 80 75 97 100 73 70 64 62 68 66 64 78 81 92 99 90 66 80 100 100 70 49 49 60 75 70 69 73 73 59 50 44 40 36 33
99 99 99 99 96 87 83 78 82 87 78 100 100 95 75 71 70 73 70 78 79 87 93 99 94 84 80 100 99 58 61 60 63 67 70 74 61 60 50 44 37 40 35 34
99 99 99 99 95 95 93 89 92 86 89 96 100 100 98 72 97 99 83 96 91 93 93 99 99 90 99 100 66 63 57 69 69 68 64 59 52 46 40 36 36 40 34 31
99 99 98 97 99 100 98 95 91 92 83 100 100 100 100 78 94 96 96 89 100 91 100 100 97 100 97 84 72 70 71 69 70 54 49 44 44 40 36 35 32 34 39 40
98 98 99 100 100 98 97 97 100 100 100 98 100 88 100 78 100 100 100 100 100 100 99 85 100 98 74 64 70 65 68 60 54 61 59 50 44 33 34 37 39 42 42 52
99 100 100 100 98 94 97 100 100 100 100 99 99 99 100 94 100 100 100 100 100 100 90 98 97 82 71 64 68 60 56 51 47 40 36 34 36 39 44 51 52 60 64 66
99 98 98 99 97 100 100 100 100 100 99 100 100 99 97 100 96 98 100 100 100 99 74 99 90 62 60 60 57 55 50 42 34 34 34 38 42 48 56 58 59 68 79 91
98 97 100 99 100 100 100 100 100 100 100 98 100 100 100 98 98 100 100 100 98 80 95 81 64 59 59 55 55 56 46 46 54 36 39 47 52 59 71 81 82 95 85 80
99 100 100 100 100 100 95 94 100 100 100 100 100 100 99 100 98 100 100 91 85 95 93 90 64 53 46 46 55 45 42 84 66 53 55 79 92 89 95 94 94 94 92 88
90 96 100 99 98 100 100 100 100 100 97 98 99 98 84 99 99 94 96 99 92 79 78 70 60 48 48 55 51 45 65 93 79 54 77 99 95 92 88 91 94 92 97 96
82 94 99 99 100 100 100 100 100 96 100 98 92 98 100 99 93 98 95 82 73 74 84 73 53 56 59 59 65 56 55 62 59 58 65 75 93 95 79 88 96 97 100 97
99 99 98 99 100 100 100 100 100 95 99 100 87 97 91 86 90 92 75 81 79 80 67 56 59 59 60 56 61 83 74 64 62 62 69 72 85 97 95 95 70 83 95 100

GFSNW_sfc_rhum_009.txt.gz
RH
95 98 98 93 92 88 77 41 33 46 48 31 35 36 27 43 26 27 28 26 26 29 30 33 33 34 34 31 29 31 33 34 39 23 29 29 29 30 30 48 39 43 52 41
99 97 98 96 92 92 35 29 35 43 49 60 64 35 33 28 28 27 28 33 30 29 33 41 34 37 39 36 32 38 33 41 39 28 34 30 31 29 29 35 49 51 75 43
98 97 97 94 92 90 51 30 59 38 36 31 31 34 32 36 30 32 29 32 30 33 35 32 41 40 40 41 37 70 52 33 35 39 28 22 28 24 23 30 55 51 44 32
98 97 98 93 92 90 50 32 43 39 52 44 33 31 30 32 34 29 27 32 30 34 43 36 39 34 39 37 61 42 37 44 38 32 25 24 26 28 26 26 29 46 42 32
98 98 97 92 93 93 38 33 40 36 40 34 34 47 33 29 30 29 30 31 29 27 39 26 33 26 27 30 37 36 38 54 58 51 29 27 35 27 25 25 29 30 29 32
98 99 94 91 93 88 34 40 41 36 60 40 44 40 31 29 34 38 24 27 28 43 31 32 34 35 35 33 37 44 51 60 61 73 52 58 83 46 27 27 27 34 46 34
98 94 94 92 94 90 40 42 34 63 66 49 36 32 30 31 30 37 29 26 44 41 33 35 37 38 39 40 45 43 73 65 86 96 90 92 39 26 26 30 29 26 26 28
93 95 94 92 93 93 44 42 40 56 100 40 37 34 32 36 36 37 39 44 38 36 38 59 79 68 92 72 44 45 46 71 94 99 66 49 36 35 36 41 41 29 38 43
94 94 95 93 92 93 50 54 54 46 85 72 31 36 38 48 51 53 56 50 45 45 69 79 98 67 43 46 50 48 56 70 81 93 98 90 48 32 33 35 57 46 51 57
94 94 94 94 93 91 61 58 71 41 77 40 35 45 45 35 42 47 53 55 65 48 96 99 98 63 43 48 81 90 92 95 97 86 97 65 34 37 37 67 72 58 61 69
93 93 94 95 92 92 71 61 65 56 61 50 43 40 45 43 38 70 55 59 65 80 100 100 89 100 62 57 37 57 69 92 97 88 99 91 36 38 73 53 51 61 68 73
93 93 94 96 92 90 88 48 54 57 50 56 56 54 50 48 35 39 56 46 54 55 76 94 98 100 99 85 70 32 55 52 60 60 58 36 42 49 49 49 62 67 81 76
95 94 90 96 92 91 86 51 56 49 92 59 52 50 53 42 44 42 56 62 41 51 50 83 98 100 79 100 77 70 40 32 62 65 44 39 47 47 56 63 70 72 76 59
97 96 95 96 92 91 93 55 57 53 74 100 69 48 53 51 48 45 45 46 57 54 60 100 100 100 54 96 60 57 47 42 52 60 44 42 40 61 62 63 65 67 48 39
99 99 99 99 90 88 68 59 60 59 63 92 82 56 53 50 53 50 48 52 57 72 99 100 97 77 73 81 86 74 42 47 70 76 51 64 65 62 59 58 60 44 40 36
98 99 98 98 96 92 60 62 60 60 62 94 100 63 59 53 53 56 55 52 54 56 77 95 70 51 68 100 92 48 40 38 38 50 56 64 72 67 57 47 40 38 35 33
99 98 99 99 98 75 75 65 71 81 62 100 100 89 66 60 58 60 59 65 63 69 84 96 89 74 67 100 91 44 41 43 49 56 66 83 73 63 44 41 35 38 29 25
99 99 99 98 97 93 84 72 85 79 64 88 100 98 94 63 90 98 66 86 87 79 75 96 92 73 96 100 59 44 44 53 60 64 68 78 68 42 36 32 28 27 24 25
99 99 98 95 98 99 87 93 87 72 76 94 100 100 100 66 85 92 92 85 100 84 100 99 89 100 98 71 53 53 52 59 69 65 52 44 40 34 28 24 25 28 30 29
99 99 100 100 100 97 96 86 96 99 98 91 100 81 98 64 98 100 100 100 100 100 99 87 100 98 70 56 55 52 54 52 55 57 54 45 42 29 28 28 30 32 34 45
99 100 100 100 98 95 96 100 100 100 100 99 96 97 97 80 96 100 100 100 100 100 98 99 100 84 63 56 58 55 52 48 43 38 35 28 28 30 33 39 45 50 50 55
99 99 97 98 97 99 100 100 100 100 98 99 100 98 86 99 92 99 100 100 100 100 72 99 89 58 54 57 58 53 47 42 35 28 26 28 29 34 46 52 52 51 67 93
96 96 100 99 100 100 100 100 100 100 100 99 100 100 100 99 97 100 100 100 100 77 96 79 60 50 50 53 50 47 41 40 42 28 28 32 36 48 64 72 71 96 74 69
98 100 100 100 100 100 100 100 100 100 100 100 100 100 100 100 100 100 100 97 83 96 93 91 57 54 50 48 51 48 46 84 58 42 43 55 84 84 98 100 99 100 90 81
97 99 100 100 100 100 100 100 100 99 97 100 100 100 88 100 100 99 94 100 93 79 77 68 55 53 50 54 54 46 50 96 78 44 58 99 100 94 82 85 90 85 100 100
82 97 100 100 100 100 100 100 100 93 97 99 93 99 100 100 99 99 100 96 79 76 79 68 50 52 51 52 52 51 48 49 47 45 48 61 93 100 74 80 92 100 100 100
99 99 100 100 100 100 100 100 100 91 100 100 99 100 99 92 95 93 70 87 83 78 69 51 51 51 49 52 55 83 67 57 52 52 54 59 72 92 95 94 67 68 79 100

GFSNW_sfc_rhum_015.txt.gz
RH
98 97 95 93 92 88 76 85 68 78 79 63 75 66 43 45 31 34 35 37 31 38 36 42 43 51 45 38 43 42 42 52 68 43 33 30 34 42 45 79 65 84 86 63
97 97 95 92 92 91 87 73 79 74 81 79 90 50 38 35 31 33 37 38 38 35 46 50 53 55 51 49 50 60 52 53 79 58 49 38 35 33 37 64 77 65 80 67
97 96 98 92 93 87 79 83 80 79 78 70 65 48 46 46 36 39 33 35 39 43 46 43 59 59 54 52 47 69 62 44 56 71 48 38 44 34 32 57 89 80 75 55
97 97 94 92 93 85 68 76 73 61 74 64 62 52 44 46 48 40 38 43 40 44 55 51 61 56 54 53 58 55 53 68 59 50 40 38 39 40 38 39 45 65 55 50
97 96 90 93 95 91 76 78 72 57 58 45 57 64 44 44 38 40 41 43 39 44 53 57 56 49 51 55 47 54 59 85 76 73 52 52 57 50 46 40 40 40 43 47
97 92 92 92 94 95 81 72 69 73 83 58 71 62 48 44 45 47 42 42 57 66 55 55 55 53 52 52 53 65 75 81 88 90 73 83 79 65 45 42 41 45 62 56
91 94 92 91 93 97 92 89 86 88 84 78 58 45 43 48 42 47 52 52 60 55 48 51 56 54 53 53 54 61 78 88 97 93 82 71 59 42 42 48 45 44 56 63
94 94 92 91 90 91 85 88 90 92 100 76 55 46 46 48 60 62 59 53 49 51 61 83 63 83 62 64 52 59 69 92 95 97 94 64 52 47 54 59 62 64 70 68
94 95 93 91 91 90 84 95 94 90 95 80 50 48 53 73 80 78 70 61 62 68 97 88 86 87 66 76 64 68 78 85 90 99 94 86 66 47 44 51 86 70 72 80
94 95 95 92 91 90 92 94 89 91 94 70 65 67 65 64 75 87 77 78 74 79 99 99 98 87 63 82 85 94 98 93 94 94 93 83 63 46 47 76 74 81 76 81
94 94 95 94 91 90 92 91 84 90 93 76 69 72 66 64 81 88 77 79 84 100 98 99 99 98 89 79 70 86 88 96 95 90 90 95 52 49 63 70 80 77 78 87
90 93 95 94 91 91 93 89 77 83 90 84 77 73 70 64 68 77 75 67 83 93 98 100 100 100 100 96 85 62 79 84 92 79 82 62 54 58 66 73 81 86 82 82
95 91 95 96 94 92 94 91 90 92 99 88 81 79 70 60 65 66 80 89 69 79 90 97 98 98 95 96 96 73 57 58 84 79 64 57 52 72 72 78 82 80 74 73
97 96 98 98 98 94 93 93 92 94 99 100 91 59 70 60 62 60 66 69 80 89 96 100 100 98 84 99 78 86 66 60 61 75 63 61 75 78 78 76 72 67 64 62
99 98 98 98 98 97 94 90 89 87 93 98 98 70 63 57 64 64 68 78 86 97 99 100 99 98 91 99 96 98 68 64 83 85 69 73 86 80 72 74 73 64 58 45
98 97 97 97 98 98 96 96 95 88 95 98 99 86 76 68 67 70 70 75 83 94 99 100 98 81 88 100 100 73 59 53 51 69 76 81 80 71 64 73 68 53 44 45
97 96 97 99 97 96 96 93 93 96 95 100 100 97 86 72 76 94 90 89 96 93 98 100 99 96 89 100 100 73 60 49 68 74 76 85 76 80 61 55 48 47 37 38
98 97 99 95 97 97 95 96 91 97 96 99 99 97 98 79 100 100 96 100 98 95 99 100 98 96 99 100 89 70 58 57 76 78 78 79 76 66 58 46 38 37 42 44
99 99 96 95 97 99 99 93 98 95 95 100 100 100 98 90 99 100 98 99 100 98 100 100 97 100 99 89 83 70 60 74 80 78 73 73 74 65 44 37 42 47 52 55
99 95 99 100 100 96 98 92 99 100 100 98 100 98 100 92 100 100 100 100 100 100 99 97 100 99 92 75 67 68 71 68 68 82 83 77 59 46 45 47 52 55 59 62
98 100 100 99 94 96 99 100 99 98 100 100 99 99 99 94 99 100 100 100 100 98 95 99 99 98 87 71 74 67 69 67 67 54 47 43 43 49 57 64 70 66 71 70
99 99 97 96 95 99 100 100 100 100 99 100 100 100 98 100 96 99 100 99 100 98 96 100 94 88 79 74 73 68 63 49 40 37 42 46 53 62 66 66 70 75 80 90
95 96 98 97 100 100 100 99 99 100 100 100 100 100 100 99 99 100 100 100 98 99 100 97 95 69 72 72 54 50 50 58 56 49 54 55 53 60 66 76 77 91 88 86
99 100 99 100 99 99 99 99 100 100 100 100 100 100 100 100 100 100 99 99 99 99 99 98 98 82 81 74 58 52 57 69 60 59 59 61 77 86 89 94 97 98 96 90
98 99 99 99 100 100 100 100 100 99 100 100 100 100 100 100 99 100 99 99 98 99 99 100 98 86 77 75 68 66 66 79 77 67 69 80 85 89 84 88 91 91 96 99
95 94 97 99 100 100 100 100 100 99 100 100 100 100 100 99 99 99 99 98 98 100 100 97 86 80 76 73 71 71 72 72 70 72 72 74 86 87 79 85 96 95 96 96
94 96 100 100 100 100 100 100 100 99 100 100 100 99 98 100 99 99 100 99 100 99 95 95 78 75 74 73 73 84 79 76 78 79 74 74 79 90 95 90 82 88 90 93

GFSNW_sfc_rhum_021.txt.gz
RH
97 96 94 93 91 92 79 79 53 74 52 46 90 75 59 49 38 36 40 45 45 42 51 60 61 59 57 56 57 44 54 58 71 51 40 41 44 52 52 72 60 88 84 64
96 96 94 92 92 83 84 76 93 83 48 61 88 60 50 42 39 39 42 46 49 50 60 64 67 64 61 50 54 56 51 59 74 58 52 42 48 47 63 66 76 67 79 64
95 97 95 92 92 92 84 76 85 78 84 69 52 61 52 51 44 43 43 44 46 50 60 64 69 68 61 52 48 70 60 63 56 64 55 50 45 45 59 59 82 73 71 55
96 97 92 93 92 91 79 87 69 64 76 75 79 61 52 51 51 46 43 45 48 51 65 70 74 68 62 49 60 61 57 63 64 61 59 51 50 46 52 57 60 64 58 60
97 93 91 95 92 90 78 88 75 76 59 54 60 75 58 50 50 46 50 48 59 55 57 55 68 57 56 46 57 71 72 77 68 76 66 70 59 49 55 53 51 60 55 72
94 91 94 97 91 78 76 84 88 66 86 68 73 75 57 51 50 58 54 56 63 66 67 65 67 68 64 58 61 80 74 79 67 58 79 72 57 62 57 52 51 50 69 62
92 93 94 96 88 87 82 94 83 84 88 63 55 59 54 56 53 58 63 58 63 59 58 54 50 55 68 73 80 66 83 92 88 76 72 53 43 53 50 51 58 70 76 76
94 94 94 93 93 92 78 96 80 82 96 81 66 66 72 70 76 76 76 73 62 61 52 67 59 74 67 72 84 82 74 89 97 77 76 50 45 55 59 59 57 72 74 76
95 95 94 94 95 94 85 97 92 78 91 81 64 72 67 76 83 78 79 75 74 68 88 78 68 57 53 78 82 79 79 77 77 98 65 52 43 60 53 51 74 75 76 82
96 95 94 94 95 92 79 92 93 80 90 81 73 73 70 76 81 86 81 77 78 69 94 91 88 85 62 80 81 94 96 97 87 100 86 72 53 56 53 66 57 83 78 80
96 97 96 96 95 95 81 93 94 77 92 88 86 81 76 81 80 84 76 76 82 92 83 86 94 96 88 85 75 88 92 98 98 98 96 68 55 61 64 64 76 78 84 83
98 98 98 98 97 96 85 86 94 91 84 85 84 80 82 80 62 84 84 68 78 83 93 98 98 98 99 88 85 73 76 69 82 74 75 57 61 64 63 71 79 86 86 87
98 99 99 99 98 95 86 96 97 86 95 85 82 83 74 67 75 71 76 93 79 85 84 97 99 82 98 96 96 85 72 69 86 76 56 63 61 62 74 81 81 86 85 84
98 98 98 99 99 94 90 97 98 87 92 96 88 76 76 67 72 75 69 82 91 92 94 100 100 88 84 94 79 89 73 73 72 84 70 76 74 75 80 86 87 82 81 78
97 98 99 99 99 95 89 96 98 95 74 92 99 82 74 72 77 82 81 81 88 96 99 100 95 96 95 99 97 97 75 70 83 73 62 70 65 79 85 88 82 76 72 62
97 99 99 99 95 93 82 82 93 97 93 91 91 92 86 80 86 87 87 90 94 93 97 100 98 87 89 99 99 82 72 68 58 63 64 71 82 87 83 80 78 72 49 41
96 99 99 97 90 93 86 72 95 98 91 96 98 98 89 89 91 96 95 95 98 95 99 98 99 97 94 99 98 70 69 66 67 72 84 90 88 89 82 77 59 50 42 45
96 98 98 98 95 95 97 98 98 98 93 93 98 98 94 88 100 99 98 99 98 98 99 100 100 98 100 99 89 81 70 69 78 86 85 82 84 82 69 43 41 50 56 57
97 95 92 93 97 99 98 97 99 97 87 98 100 91 90 94 99 100 100 98 100 97 100 100 99 100 99 89 81 77 81 84 83 89 88 83 75 53 47 53 62 65 60 59
92 92 92 98 99 92 93 91 96 99 99 99 98 99 99 96 100 100 100 100 100 100 99 98 100 99 93 81 82 84 82 76 88 91 93 76 66 69 80 86 76 60 62 65
97 99 100 98 90 95 98 98 96 98 100 99 100 100 99 97 99 100 99 100 100 97 94 100 98 98 90 80 86 78 78 77 78 76 74 78 85 96 90 72 74 70 69 68
95 97 94 93 94 98 98 98 100 100 99 99 100 100 99 100 96 99 100 100 99 98 97 100 99 93 70 71 79 77 80 84 87 87 92 85 71 65 69 64 60 64 79 92
92 93 98 94 100 100 100 99 100 99 100 100 100 100 100 98 98 100 100 100 99 99 100 99 100 93 78 81 89 94 91 88 85 81 76 69 66 64 68 77 69 89 82 82
98 100 98 99 99 99 99 99 100 100 100 100 100 100 100 100 99 100 99 100 100 99 99 98 100 99 97 72 74 68 74 84 84 78 72 69 82 81 89 90 94 94 90 85
97 92 98 99 99 99 100 100 100 100 99 100 100 100 100 99 99 99 99 98 98 98 98 99 100 100 98 76 85 89 90 92 81 70 76 85 86 87 82 86 90 87 95 96
92 96 98 99 97 100 100 100 100 99 100 100 100 99 99 99 99 98 98 98 98 99 100 100 98 99 98 99 98 96 93 81 77 79 79 79 88 88 79 87 91 93 95 94
88 99 100 99 99 100 100 100 100 99 100 99 98 95 94 98 98 99 99 98 100 100 99 99 92 90 86 84 81 87 83 77 73 73 74 76 82 94 93 88 77 84 89 94

GFSNW_sfc_rhum_024.txt.gz
RH
92 96 96 96 96 93 92 66 52 77 53 54 87 71 66 58 40 41 45 44 43 44 56 61 61 57 56 60 61 49 57 59 70 49 45 51 48 53 51 68 56 88 84 64
95 95 97 96 94 89 83 84 95 87 49 67 89 62 56 47 41 45 46 49 50 55 64 66 68 67 61 50 56 51 49 60 72 54 46 43 51 59 62 66 76 72 82 62
96 95 97 95 93 90 81 79 93 82 79 71 53 54 58 52 49 48 45 50 50 56 67 68 72 69 62 53 55 70 59 62 55 56 49 53 47 54 60 57 80 70 72 53
95 96 98 95 94 92 89 80 76 77 84 85 60 58 53 53 51 47 45 48 50 55 69 73 76 70 62 50 64 68 54 61 64 69 67 56 49 48 60 56 58 60 56 61
96 97 96 95 94 92 83 91 73 71 70 77 67 75 59 50 52 51 52 49 63 56 60 54 69 60 54 39 66 74 70 74 61 77 72 70 63 49 52 57 58 63 64 60
97 97 93 95 92 83 78 95 86 64 87 80 75 79 62 53 54 62 57 53 60 66 66 68 72 69 66 59 66 79 73 78 62 57 76 65 59 55 56 59 58 54 64 56
95 93 95 96 91 82 81 94 84 83 84 76 71 65 59 58 54 58 66 60 62 65 61 58 53 60 74 79 86 71 80 80 81 75 72 56 44 53 57 54 55 54 67 69
93 94 95 96 90 92 89 97 77 84 95 71 65 69 76 75 78 79 80 79 71 60 52 71 66 74 68 73 86 79 72 84 96 75 74 47 34 45 61 60 54 65 66 79
95 95 95 94 88 91 95 98 88 83 89 80 61 74 72 79 84 81 84 81 71 63 88 75 70 65 58 72 84 81 76 75 75 95 64 53 42 53 56 52 74 62 70 80
96 96 97 96 90 91 83 98 91 82 92 86 74 73 72 75 81 87 83 77 77 67 92 90 80 68 62 72 78 96 97 98 84 100 81 67 48 57 56 63 60 81 74 80
98 99 99 96 92 89 85 96 95 80 96 91 86 80 78 82 81 85 80 77 82 90 80 85 89 92 87 83 72 92 89 97 98 96 91 70 53 59 63 63 71 78 82 83
99 98 99 99 94 92 83 90 96 94 88 88 86 84 84 83 63 84 86 69 79 81 90 96 98 97 97 88 81 81 78 72 82 73 74 55 57 66 65 65 62 81 82 83
98 98 99 99 99 92 88 95 97 86 95 87 85 86 77 73 80 70 77 91 78 81 82 95 97 79 96 94 95 86 77 68 83 71 54 64 64 60 64 70 72 80 84 85
98 99 98 97 93 92 90 97 99 82 91 96 88 79 81 74 80 80 70 82 89 92 94 100 99 84 86 94 82 88 76 73 72 81 70 72 66 73 64 77 83 84 85 84
99 99 99 98 94 87 88 97 99 97 68 94 99 85 78 80 85 85 82 78 86 94 98 100 92 96 94 99 97 97 77 69 81 77 56 60 58 64 83 83 86 84 84 81
98 99 99 94 94 87 69 75 92 99 92 93 93 93 89 87 87 91 93 94 94 95 95 100 98 88 90 99 98 77 69 69 61 56 66 68 73 84 84 88 85 80 66 52
99 97 93 90 88 92 77 71 94 96 92 95 98 99 89 90 92 98 98 97 98 95 99 100 98 99 94 98 98 65 63 66 70 75 83 83 88 83 88 81 63 52 45 47
97 97 96 93 94 95 96 99 98 98 87 92 95 96 95 92 100 99 98 100 98 98 98 100 100 98 99 99 91 85 80 81 82 82 86 84 88 84 56 48 44 57 73 78
94 92 90 90 96 100 98 95 95 95 85 98 98 89 90 95 99 99 99 98 100 97 100 100 99 100 98 97 94 89 86 89 87 90 89 82 65 55 64 74 83 93 98 80
91 90 90 99 100 91 90 88 93 96 98 99 99 96 99 94 100 100 99 100 98 97 99 98 100 99 91 79 80 85 92 92 91 93 86 79 94 94 96 98 98 97 87 82
96 100 100 98 90 93 97 99 94 94 96 99 100 99 99 97 99 100 99 100 100 96 91 99 99 98 89 85 92 91 90 89 90 90 91 90 95 97 99 98 92 87 78 71
94 96 94 93 94 98 94 99 100 98 100 100 100 100 99 100 97 99 100 99 99 97 97 100 99 92 83 90 94 90 86 88 91 91 96 97 96 94 88 76 65 64 80 92
92 92 92 92 98 98 94 99 99 100 100 100 100 100 100 98 98 100 99 99 99 99 99 99 99 99 98 99 97 90 86 91 90 85 82 79 72 73 73 85 81 91 84 81
97 100 100 99 98 99 99 99 100 100 100 100 100 100 99 100 100 100 99 100 100 99 98 98 99 100 99 79 80 83 86 90 84 76 68 74 84 85 90 91 94 94 90 90
98 96 98 98 100 99 100 100 100 100 100 100 100 100 98 99 99 99 98 98 98 98 98 99 99 100 98 96 98 99 98 96 88 75 81 87 89 90 84 88 92 88 95 96
93 97 99 99 99 100 100 100 100 99 100 100 99 99 99 99 99 98 98 97 96 98 97 100 99 99 99 99 99 96 96 87 80 82 80 77 89 89 82 88 91 92 95 93
93 99 100 100 100 100 100 100 100 99 100 99 98 96 96 98 98 98 98 98 99 99 100 99 97 97 99 97 92 90 85 78 73 74 77 79 86 94 93 91 88 90 91 95

GFSNW_sfc_rhum_027.txt.gz
RH
86 87 92 94 93 95 97 74 61 79 63 56 75 60 53 61 40 42 44 39 42 43 50 52 50 49 46 51 50 41 44 54 57 37 36 39 36 41 44 53 47 66 60 41
86 89 94 93 93 90 90 68 93 84 59 68 83 58 52 49 41 45 44 49 48 53 59 59 58 58 56 49 46 50 47 56 57 44 36 35 39 46 48 54 61 60 81 38
88 93 95 94 95 89 80 85 92 81 70 65 54 57 52 50 49 48 44 50 51 58 60 63 66 60 55 54 51 74 58 53 50 46 38 42 43 52 46 46 62 52 54 38
92 94 95 97 94 91 83 79 81 79 80 69 55 50 53 49 51 47 45 48 48 56 65 64 67 59 48 48 66 62 50 53 52 54 54 46 37 43 51 43 45 52 41 44
93 95 95 96 95 92 84 80 73 69 73 72 57 70 58 49 50 49 50 51 55 54 59 52 66 57 48 40 58 61 60 63 54 59 60 58 52 44 43 50 49 46 47 46
94 95 96 96 93 81 80 94 76 62 84 80 64 69 63 52 56 64 53 51 57 59 59 59 64 61 64 54 62 69 62 68 59 59 60 52 60 50 45 45 46 43 49 37
94 97 96 96 90 82 78 89 76 76 82 80 61 63 58 56 54 58 62 56 58 62 61 57 53 59 70 66 69 61 68 64 68 73 71 60 36 45 43 45 44 42 43 45
97 95 96 96 89 89 86 95 74 76 97 70 67 70 74 73 77 77 74 75 66 61 54 72 66 74 75 74 70 63 59 70 81 78 58 42 27 36 49 56 37 43 42 49
95 95 97 96 91 91 91 96 86 75 85 75 61 74 70 76 81 79 85 72 64 61 78 77 78 73 58 55 71 71 64 66 72 78 64 61 41 33 47 43 60 43 51 64
95 95 96 95 90 91 90 97 87 78 90 82 71 73 73 73 77 84 79 71 74 63 84 89 78 64 55 56 69 92 96 95 84 82 80 59 42 41 46 54 53 55 60 62
98 98 95 92 87 90 87 97 95 77 94 90 84 74 75 76 76 83 79 75 80 86 88 91 79 90 75 67 58 80 75 91 92 89 80 70 45 49 61 56 55 55 65 66
98 99 97 90 83 88 89 93 97 88 87 88 85 81 81 80 62 79 84 69 75 75 86 90 93 99 98 82 75 71 70 67 72 63 66 51 49 57 52 56 53 53 65 63
98 99 99 89 86 88 89 96 94 84 95 85 82 84 77 75 81 72 77 84 74 72 74 88 92 91 88 94 85 76 68 61 71 67 49 54 54 50 53 52 55 55 61 61
99 99 99 96 90 92 86 90 97 80 90 100 88 77 81 76 82 77 73 78 84 84 82 97 98 96 78 88 74 79 67 67 68 71 61 58 52 58 56 56 62 63 66 70
98 94 94 93 92 90 89 97 98 94 64 97 98 82 79 81 83 79 75 74 80 88 95 100 95 90 91 96 92 87 69 65 76 73 51 53 52 48 60 67 68 69 74 75
99 99 94 89 89 89 82 73 89 94 89 92 99 89 88 86 85 88 91 88 87 84 87 99 89 86 87 100 89 66 61 62 56 56 56 56 58 60 66 71 74 76 69 58
94 92 92 94 94 91 72 67 88 94 90 95 98 98 86 91 90 95 95 94 94 88 97 99 98 96 83 99 91 82 77 74 72 67 70 72 71 77 74 58 51 55 55 65
94 93 93 92 94 94 94 97 95 95 80 88 95 98 97 89 98 99 95 99 95 97 98 98 99 97 99 99 87 82 78 80 78 83 79 82 61 49 49 55 67 83 87 89
91 91 92 90 96 99 96 94 93 91 80 95 94 90 93 90 99 99 99 96 100 97 100 100 94 100 100 89 87 91 92 95 92 70 60 69 77 79 81 81 84 94 99 99
88 88 88 99 100 91 86 85 90 95 98 98 100 94 100 90 100 100 100 100 100 99 99 96 100 100 81 86 89 93 94 90 82 84 91 96 97 96 98 99 98 96 93 89
95 99 100 98 89 88 94 98 97 96 96 99 99 98 98 96 98 100 100 100 100 96 92 99 98 98 83 90 94 86 85 87 90 92 94 96 98 98 99 98 96 93 88 81
93 96 93 90 90 95 96 100 100 99 98 100 100 100 98 100 95 98 99 100 100 94 94 100 99 95 98 97 98 97 95 94 93 94 94 92 89 86 86 82 73 72 83 93
90 90 90 92 98 98 89 100 100 100 100 100 100 100 100 99 97 100 100 100 100 98 100 98 99 99 99 99 99 97 96 93 86 79 77 74 70 70 78 86 87 90 83 78
96 96 99 96 100 100 100 99 100 100 100 100 100 100 100 100 100 100 100 100 99 99 97 96 99 100 98 92 95 92 86 88 76 69 68 74 78 79 88 92 92 94 85 85
99 94 99 98 100 99 100 100 100 100 100 100 100 100 97 100 98 97 97 97 96 92 93 95 99 98 88 95 93 92 95 95 84 74 80 90 88 84 80 85 84 84 91 91
99 99 99 99 99 100 100 100 100 99 100 100 98 98 96 98 97 96 95 93 94 94 99 99 98 99 99 99 99 97 94 83 80 78 74 79 88 91 84 85 90 94 95 96
96 99 100 100 100 100 100 100 100 99 100 100 98 96 95 95 96 96 95 94 94 98 98 98 98 98 98 98 98 91 82 75 79 80 85 87 88 93 93 95 88 86 86 94

GFSNW_sfc_rhum_030.txt.gz
RH
90 94 88 89 95 93 88 57 50 72 60 53 44 39 28 47 28 30 27 24 25 26 29 31 24 28 28 34 30 29 30 32 42 30 28 28 27 27 25 33 34 46 46 22
94 95 88 92 95 88 62 49 60 63 54 56 61 38 30 36 27 28 30 28 28 32 34 37 36 37 40 37 33 34 33 36 43 37 31 28 29 28 26 34 40 40 65 21
94 94 90 93 91 87 52 46 74 69 50 35 36 35 31 34 33 32 32 35 36 39 40 42 45 43 41 39 36 70 46 36 34 37 27 26 32 32 27 25 40 28 31 15
90 94 93 94 93 88 63 48 48 45 60 46 37 31 28 31 36 32 31 36 32 34 46 43 46 41 37 40 63 45 37 38 36 33 34 31 27 27 30 27 25 35 18 20
91 95 93 95 92 90 61 48 49 50 41 37 35 43 34 28 34 32 32 34 36 37 40 32 43 38 34 34 43 41 41 45 44 45 40 37 36 28 25 27 25 28 21 23
90 94 93 95 93 88 51 63 47 36 68 42 39 36 29 27 38 46 34 33 38 43 42 42 39 40 35 32 41 47 45 51 46 41 42 41 73 39 27 25 27 28 31 22
91 93 91 94 92 89 41 52 40 52 61 46 32 31 32 34 35 42 44 38 39 51 41 38 38 41 40 40 46 41 52 48 59 68 69 82 21 26 26 26 23 20 22 19
93 92 94 92 94 88 59 58 44 52 99 44 35 36 38 46 49 53 48 54 46 42 42 51 54 65 80 63 48 44 38 48 76 92 44 28 14 23 27 34 22 20 21 20
94 94 95 95 93 84 70 65 55 47 80 62 30 41 46 50 53 58 64 55 47 42 54 66 73 63 43 50 55 49 43 47 56 72 89 88 29 30 34 33 35 24 30 32
96 97 96 95 93 87 70 76 76 45 68 44 47 43 52 46 50 57 59 56 59 48 76 97 79 58 38 44 62 89 82 86 88 72 91 46 25 25 36 43 35 32 36 35
96 96 97 96 92 89 69 83 77 54 70 61 61 51 53 53 47 63 58 55 61 68 91 91 68 90 52 45 37 54 59 79 93 78 97 80 30 38 46 38 35 36 35 39
95 95 96 94 90 88 86 73 74 61 58 69 65 67 63 59 46 51 55 50 51 48 68 83 87 97 96 66 59 48 53 47 52 46 44 34 34 35 34 40 42 40 42 35
97 97 96 92 85 92 80 76 81 60 79 65 59 64 62 59 64 56 54 62 50 52 57 67 83 100 67 97 62 56 46 44 53 50 28 32 33 32 31 32 37 34 34 37
98 96 94 89 84 90 78 64 82 73 72 100 77 57 67 63 61 59 55 57 62 58 54 92 99 98 58 74 54 54 46 48 46 50 37 32 31 34 36 38 40 42 41 47
98 96 89 85 89 90 77 74 84 69 57 94 82 66 65 62 57 56 54 54 53 61 82 100 92 69 75 81 73 67 43 45 60 57 43 45 40 39 45 50 49 51 54 56
95 90 88 88 88 94 55 72 71 67 65 80 99 69 71 66 64 66 69 62 61 56 66 91 64 66 69 98 70 64 58 56 56 55 51 53 53 53 55 58 54 53 52 49
93 90 89 90 93 77 77 74 75 84 68 87 100 91 71 74 68 77 71 71 70 62 84 96 90 77 61 98 77 68 63 59 62 61 60 60 59 59 50 53 55 65 70 76
93 93 92 92 91 91 82 75 86 84 54 66 97 94 90 74 95 97 83 93 78 86 94 93 95 88 92 95 76 69 68 64 66 58 60 57 52 55 63 65 71 82 93 96
94 95 94 81 85 86 78 92 90 69 59 80 100 100 98 79 94 94 93 81 100 87 100 99 85 98 98 84 84 86 84 86 84 66 64 69 74 75 83 92 94 97 100 95
89 77 74 95 94 89 81 65 75 80 86 85 100 85 98 74 99 100 98 99 98 98 96 92 100 96 79 87 89 88 84 72 68 90 96 96 96 95 96 96 86 79 74 67
84 96 98 84 85 68 78 91 89 81 100 92 95 88 92 87 94 100 99 100 100 100 86 97 99 96 90 92 91 84 82 83 81 82 86 75 78 94 98 84 76 75 75 73
87 87 83 75 73 80 97 100 100 96 96 100 100 99 92 99 83 92 96 100 100 98 80 99 98 95 98 97 95 84 78 76 74 68 68 68 64 65 66 64 58 63 73 93
78 77 97 78 99 100 100 100 100 98 100 99 100 100 100 92 85 100 97 100 100 84 98 97 98 99 99 98 95 91 77 68 63 58 56 54 56 63 66 73 71 93 69 67
94 100 100 100 100 100 100 98 100 100 100 100 100 100 100 100 100 100 100 100 100 100 96 94 97 100 100 99 97 68 64 85 63 58 59 68 67 70 90 100 97 100 83 80
91 93 100 100 100 100 100 100 100 100 99 100 100 100 95 100 100 100 100 100 98 87 90 93 96 99 97 98 74 65 75 92 75 64 70 96 92 79 74 81 76 80 92 90
97 96 100 100 100 100 100 100 100 99 100 100 98 99 100 100 100 100 100 98 91 93 94 96 88 93 96 95 92 86 79 67 63 64 68 80 91 94 78 81 79 85 87 88
100 100 100 100 100 100 100 100 100 99 100 100 100 100 99 88 95 98 86 99 91 96 95 92 87 91 93 94 90 91 74 67 70 74 76 78 78 81 73 67 56 59 62 76

GFSNW_sfc_rhum_033.txt.gz
RH
80 88 90 92 94 90 85 64 57 57 60 57 54 46 30 28 18 24 20 21 18 19 19 20 17 19 18 19 20 22 22 22 33 26 22 20 21 22 22 36 28 33 43 22
79 84 88 93 94 86 57 61 59 73 55 65 65 37 26 21 22 24 23 20 19 17 21 25 19 18 35 30 27 22 25 25 35 31 26 22 21 19 20 20 30 32 53 24
77 82 85 94 94 84 55 48 71 80 70 39 42 39 30 29 22 22 19 17 23 24 24 24 26 26 34 34 27 62 42 25 28 36 24 20 28 20 19 23 37 30 24 17
81 88 87 95 93 82 66 52 44 46 65 51 41 34 28 27 30 24 24 25 25 26 32 30 32 28 35 35 58 34 32 34 26 22 24 22 20 19 20 20 20 29 22 12
82 84 86 95 91 80 72 50 36 36 43 43 39 41 30 24 24 27 28 25 22 21 26 28 30 30 30 31 36 34 30 36 36 41 28 27 28 22 18 17 17 15 14 16
87 87 92 95 91 79 60 62 42 36 54 47 41 36 27 24 28 36 22 22 24 29 31 33 31 29 26 26 35 39 38 40 44 36 32 32 63 36 24 18 16 19 26 18
89 89 92 96 92 78 43 53 44 51 61 44 34 27 25 23 29 33 30 25 29 41 31 30 31 30 30 31 36 32 44 44 52 56 68 81 17 16 16 21 17 14 14 13
88 90 91 95 93 90 70 70 50 44 99 35 29 27 27 24 33 34 37 42 35 33 32 44 53 59 67 42 32 30 30 41 62 89 39 24 16 14 19 22 18 16 17 16
92 94 91 96 93 92 91 79 50 38 68 44 23 26 25 36 43 51 54 43 38 38 46 60 53 52 36 45 45 33 33 37 49 56 85 87 33 22 22 23 32 20 20 20
93 92 93 94 93 91 86 70 69 31 37 24 26 29 32 27 32 40 55 54 53 42 72 96 67 54 33 45 58 88 74 78 80 64 82 46 22 21 26 41 42 28 25 24
94 95 94 94 94 94 91 65 62 41 47 45 42 28 30 33 31 58 49 51 53 57 76 85 63 81 48 43 30 51 57 74 89 71 97 79 22 26 37 38 28 26 29 28
96 95 93 94 94 94 89 72 55 46 44 58 54 57 52 47 39 34 49 36 46 43 51 76 81 96 94 60 53 32 47 40 50 41 43 29 24 25 24 27 33 31 32 30
96 96 97 96 95 91 92 59 54 47 63 57 52 55 55 49 53 51 45 51 36 42 47 58 75 100 62 94 58 46 34 34 43 40 23 23 23 24 25 27 32 31 31 33
95 96 96 96 94 92 90 56 56 44 62 100 71 49 59 52 48 46 49 46 51 48 47 86 96 97 46 67 48 45 39 36 35 39 30 28 24 31 37 40 40 39 39 40
97 96 96 94 89 85 74 66 66 60 44 88 78 58 56 49 46 45 45 49 49 51 75 96 85 57 66 70 62 58 33 39 56 55 41 48 41 44 49 47 48 47 48 47
96 95 95 90 85 88 68 67 66 62 53 70 97 62 62 55 50 49 47 46 45 42 63 85 52 54 60 98 66 52 48 47 49 51 50 50 52 45 44 51 51 50 51 49
96 93 90 86 93 71 56 52 75 78 59 78 95 86 66 60 54 59 54 54 54 49 66 90 70 61 55 96 70 57 55 51 52 51 53 60 49 53 54 62 68 77 83 86
89 87 84 89 95 91 67 75 86 73 51 54 96 94 90 63 83 94 65 81 64 76 82 82 88 74 84 82 65 59 57 55 56 51 48 52 53 54 62 66 71 72 77 80
91 93 95 70 72 75 66 91 80 63 62 71 100 100 100 65 78 83 86 66 100 72 100 89 77 95 93 75 69 68 67 73 67 63 60 61 69 77 76 72 76 83 95 75
96 61 51 87 91 86 82 66 74 68 72 73 100 73 93 65 94 96 93 97 97 95 94 76 100 90 74 77 79 72 71 62 70 94 95 94 86 71 64 64 60 59 53 52
69 84 96 86 81 69 70 84 78 68 95 82 86 75 88 77 90 99 96 99 97 99 84 94 99 93 81 84 79 74 70 62 65 67 62 58 61 78 74 61 63 65 62 63
84 81 75 68 65 81 96 100 99 88 91 97 98 94 82 94 72 86 93 99 93 97 70 98 97 93 94 90 80 69 60 58 58 55 54 55 53 52 52 50 57 66 66 93
64 70 96 73 99 100 100 100 99 98 100 98 98 100 96 91 80 99 93 100 99 73 98 89 96 97 97 84 74 70 64 60 55 49 47 47 51 58 61 66 70 87 64 68
84 100 100 100 100 100 100 100 100 100 100 100 98 100 99 100 100 100 100 100 93 100 99 94 99 97 98 96 73 61 60 82 53 50 53 62 62 72 88 100 98 99 76 72
90 90 100 100 100 100 100 100 100 99 98 100 99 97 87 100 100 99 100 100 98 87 95 93 98 98 98 96 63 56 65 89 69 57 69 100 92 70 71 75 69 76 87 86
91 97 100 100 100 100 100 100 100 98 100 98 86 98 100 100 97 100 100 96 90 95 94 93 96 97 97 79 68 69 65 62 58 62 70 82 87 93 73 69 65 89 84 81
99 100 100 100 100 100 100 100 100 98 100 100 99 100 99 85 93 98 86 100 94 97 92 81 87 90 92 92 83 91 72 62 65 66 68 72 71 71 60 55 50 48 50 74

GFSNW_sfc_rhum_039.txt.gz
RH
78 82 85 80 87 93 98 97 97 70 73 98 88 82 65 58 40 38 39 29 37 28 29 31 27 28 38 20 26 32 46 57 78 50 35 23 25 38 46 71 46 60 79 55
80 85 87 84 82 90 95 96 84 77 70 78 88 63 62 56 49 42 36 36 34 32 30 36 32 45 43 41 34 36 41 45 62 44 38 34 32 28 27 40 61 56 73 54
86 80 85 88 81 87 93 97 95 97 91 48 63 63 58 64 47 45 34 30 32 33 34 33 33 52 47 46 44 63 49 40 46 55 40 38 42 40 30 38 75 58 54 43
86 75 82 82 83 84 96 99 74 74 96 87 60 54 49 59 58 42 35 33 32 35 40 40 36 51 50 47 59 47 44 45 41 33 33 31 31 34 32 29 42 52 43 37
75 76 80 77 83 82 98 98 69 80 81 70 75 59 59 52 45 42 37 39 32 32 38 40 39 42 49 49 54 46 43 56 50 57 40 37 41 34 34 31 32 33 31 33
78 79 77 80 85 84 97 80 76 73 80 78 79 58 52 54 45 41 30 34 39 42 40 45 43 44 46 44 54 54 55 61 73 73 48 44 57 41 35 36 34 36 39 34
80 80 78 80 84 84 94 70 77 91 81 78 69 49 43 51 46 49 33 35 42 48 43 46 52 48 48 56 57 49 66 65 82 82 74 57 40 26 23 27 28 28 27 27
83 82 80 81 84 82 92 85 91 98 100 63 58 46 48 48 46 44 44 51 42 48 57 75 72 80 57 56 43 45 60 78 88 76 83 53 35 30 34 34 40 34 37 35
84 83 82 79 86 87 97 87 97 99 98 78 45 43 48 58 64 81 74 64 62 52 77 86 77 86 61 62 49 52 52 70 72 91 85 72 55 31 30 30 64 43 42 46
87 84 81 83 82 85 92 94 90 99 100 65 58 47 51 51 82 92 89 76 73 69 100 99 86 76 50 76 75 78 89 85 84 96 92 77 43 31 37 51 64 48 45 49
89 84 82 86 85 82 89 91 90 98 98 86 62 42 50 63 75 86 82 88 81 89 91 92 91 93 73 71 66 76 77 94 96 97 98 82 34 36 50 64 52 48 48 54
86 88 91 90 88 88 86 94 85 90 99 96 84 70 74 58 61 80 88 76 72 81 88 97 99 98 98 79 82 57 80 80 86 76 83 61 41 48 56 56 60 60 63 66
91 90 89 90 90 89 88 90 95 97 98 93 91 85 69 57 55 55 81 91 64 64 83 96 99 98 92 88 87 70 55 46 68 57 50 43 62 58 57 60 65 57 55 59
91 92 91 90 89 87 91 95 96 99 98 100 93 64 76 67 62 63 58 64 75 81 92 99 99 99 78 93 72 76 64 50 51 54 66 68 64 65 62 59 58 58 56 57
92 92 92 91 92 93 95 98 98 98 98 98 99 73 62 67 63 64 69 72 79 93 87 100 98 91 89 90 84 86 56 58 74 88 74 72 74 66 62 64 63 62 68 73
89 90 90 91 97 96 98 96 88 94 96 100 100 83 77 64 71 68 66 77 76 92 97 99 90 76 88 98 95 66 65 65 68 74 64 73 73 72 69 74 73 72 75 76
90 90 94 98 97 96 93 97 98 98 98 99 100 98 82 76 79 92 85 83 92 92 95 98 90 86 96 100 94 69 64 61 63 62 69 81 75 87 78 77 75 74 75 79
94 94 98 98 98 98 95 89 94 96 92 90 99 100 96 80 96 99 95 96 95 95 96 96 98 96 98 94 77 65 62 63 67 69 68 75 76 74 75 69 73 82 86 86
97 97 98 98 99 100 93 90 90 95 89 99 100 100 100 81 95 97 95 91 100 92 100 96 91 97 97 83 77 76 70 74 75 70 72 75 78 72 72 78 84 87 90 82
96 94 99 100 99 90 85 85 88 92 95 95 100 97 100 87 100 100 100 100 98 97 98 92 100 99 81 83 80 78 75 69 76 88 94 88 82 74 75 84 80 71 74 79
95 99 100 99 93 92 91 98 94 96 100 94 97 96 99 92 99 99 100 99 98 100 98 96 99 99 89 78 77 75 70 74 78 80 76 71 70 80 80 77 82 87 93 98
92 92 95 95 93 96 94 100 99 99 100 98 100 98 95 98 93 98 98 95 99 98 92 98 94 97 90 82 80 76 73 73 72 67 70 70 65 66 72 79 89 94 97 98
85 89 95 92 100 99 92 99 98 99 100 100 100 100 100 96 94 100 98 91 97 95 95 89 98 94 88 82 76 77 71 70 69 66 71 74 80 83 86 92 92 92 88 91
97 100 98 100 99 99 99 99 100 100 100 100 100 100 100 100 99 100 91 100 93 98 99 93 99 97 94 79 73 69 71 77 75 77 84 91 92 97 95 91 89 90 89 90
98 95 99 99 100 100 100 100 100 99 100 100 100 100 95 100 98 100 99 99 94 94 97 100 99 98 85 81 76 78 79 82 81 80 88 92 92 88 88 88 85 87 91 92
98 98 99 99 100 99 99 100 100 99 100 100 99 100 97 99 99 97 98 94 98 100 100 99 98 94 93 83 80 75 78 81 86 88 89 91 89 86 81 84 85 91 87 90
99 99 100 100 99 100 100 100 100 99 100 100 100 96 100 98 97 99 99 100 100 99 99 98 98 98 97 98 95 89 84 86 89 91 89 86 82 79 78 70 72 79 72 88

GFSNW_sfc_rhum_042.txt.gz
RH
76 79 80 81 75 79 90 94 94 85 77 94 90 85 66 60 47 48 52 50 42 34 35 34 32 30 25 33 42 40 48 60 63 42 36 38 40 41 43 68 45 67 79 50
75 78 79 77 81 78 91 92 87 86 74 93 86 71 64 56 49 52 51 48 43 33 35 42 41 45 47 45 36 42 47 60 70 49 40 44 39 34 40 55 65 59 73 55
77 77 78 76 82 76 90 94 93 99 89 70 60 70 70 70 49 52 55 56 51 43 40 39 41 52 49 54 44 65 47 49 54 59 41 42 49 45 47 44 74 60 60 44
78 78 78 77 81 80 91 94 74 76 94 89 60 57 63 70 64 54 51 51 52 55 44 38 56 54 51 52 54 49 42 47 40 37 37 39 39 36 41 37 43 51 40 42
76 80 81 82 80 84 93 92 94 81 89 71 79 61 62 56 50 48 43 55 50 46 40 38 43 50 53 45 54 45 48 48 50 52 47 41 45 37 39 37 38 41 37 42
78 77 84 82 88 89 96 86 85 88 73 77 87 74 58 49 45 48 39 46 48 52 41 39 39 45 48 47 49 56 55 65 72 68 53 49 64 45 37 37 40 36 44 38
74 81 90 86 86 93 95 74 84 98 85 81 80 64 53 50 47 45 45 40 49 47 51 50 49 51 62 60 62 55 67 72 82 82 69 70 48 35 33 41 39 34 34 38
76 84 83 86 86 87 96 91 90 98 97 68 74 64 55 46 46 57 40 48 41 47 64 76 71 82 65 60 51 54 59 79 86 75 78 57 41 28 32 42 49 44 44 45
82 81 79 80 84 81 92 88 98 99 98 84 57 71 55 57 70 57 65 67 71 64 88 86 77 82 66 64 51 56 65 79 79 93 73 69 52 36 34 40 68 46 50 56
81 80 80 80 82 80 90 92 93 98 100 91 60 64 63 50 68 83 87 72 72 74 97 94 86 84 58 74 70 69 87 89 82 97 84 69 49 35 38 46 52 51 53 54
80 80 82 82 80 80 89 92 95 95 96 91 90 55 57 50 63 84 84 85 83 95 88 90 92 85 77 79 67 69 68 88 93 96 91 66 48 40 45 55 60 58 59 65
83 84 84 82 83 80 84 95 93 93 99 97 88 84 84 62 52 86 89 72 75 84 88 97 99 92 95 81 90 68 71 66 78 74 76 59 59 54 60 61 66 73 76 75
84 85 84 83 83 89 83 96 97 93 95 91 97 94 77 68 54 62 88 91 76 76 77 96 98 81 91 88 87 75 63 67 76 67 72 73 75 72 70 68 68 66 67 65
90 88 87 88 88 89 83 96 96 90 95 100 94 83 80 72 64 60 62 72 79 85 91 99 100 92 78 90 71 72 67 56 63 90 82 72 73 71 66 65 67 69 67 68
90 91 90 88 91 90 89 95 94 96 96 100 97 90 80 77 74 64 68 60 83 93 88 98 92 92 90 92 84 84 61 59 74 86 72 78 82 75 67 70 72 71 74 78
93 92 91 91 91 89 94 97 91 92 98 100 100 92 92 83 84 80 79 79 93 95 93 99 91 84 83 88 92 73 76 75 72 81 74 78 82 77 72 78 79 77 80 81
92 93 92 90 90 94 94 94 95 84 96 100 100 97 94 91 94 96 96 94 98 94 97 98 90 92 93 98 92 78 75 74 75 73 75 86 83 93 80 80 81 81 84 86
92 91 91 94 94 94 95 97 99 97 95 96 100 99 98 90 99 99 98 99 97 98 97 97 97 96 97 92 85 76 74 76 77 79 78 82 80 76 80 78 80 86 90 91
91 91 95 98 99 99 96 96 98 99 98 100 100 100 100 92 98 99 97 96 100 95 100 100 93 99 96 89 83 80 74 80 89 83 81 79 81 81 84 82 82 87 90 87
93 97 99 100 100 96 94 96 99 98 98 94 100 98 100 92 100 100 100 100 100 99 98 94 99 100 90 91 89 83 79 79 80 93 97 90 88 86 80 82 84 82 83 88
98 99 100 100 96 98 99 100 99 97 99 97 99 98 99 96 98 100 99 100 100 99 97 96 100 99 91 86 85 81 78 78 84 82 78 75 77 85 86 85 86 88 93 93
97 97 99 98 97 96 93 100 98 98 99 99 100 100 97 99 91 97 98 97 98 97 92 98 98 96 94 88 86 83 78 77 79 74 75 78 75 75 80 83 92 96 92 92
94 94 97 91 98 97 92 100 97 99 100 100 100 100 100 96 92 100 97 95 94 95 94 94 97 96 91 88 85 83 78 77 76 74 72 74 79 80 84 91 90 92 91 84
97 94 98 99 98 99 100 99 100 100 100 100 100 100 100 100 100 100 93 99 97 99 97 93 99 96 95 87 80 77 80 84 81 82 85 90 92 95 92 87 86 86 83 75
98 96 99 99 100 99 100 100 100 99 99 100 100 100 97 100 99 99 99 98 93 91 93 99 99 97 87 84 79 81 87 89 88 86 92 95 91 88 89 86 80 84 90 88
95 98 98 97 100 99 99 99 100 99 100 100 99 99 96 99 97 95 97 92 99 99 100 100 95 90 85 81 81 82 86 88 90 92 90 89 88 85 82 79 78 90 90 90
98 99 100 100 99 99 99 99 99 99 100 100 99 96 100 98 98 99 98 99 99 99 100 99 97 93 95 96 95 98 98 94 92 93 88 85 77 82 79 76 72 68 77 90